FENGYUN 1C DEB, 37406

Orbit data source: Space-Track

FENGYUN 1C DEB, 37406 is space debris in SSO originally from a launch on Mon, 10 May 1999 UTC launched from the Taiyaun Space Center, China (TSC). Fengyun 1C debris stems from the Chinese weather satellite Fengyun-1C, which was intentionally destroyed by a Chinese anti-satellite missile in 2007. This event dramatically increased the amount of space debris, with thousands of trackable fragments posing hazards to satellites and human spaceflight. The Fengyun 1C debris cloud has become a focal point in discussions about space sustainability and the need for international regulations to prevent the creation of new debris.

Loading next visibility...
Identifier
37406, 1999-025EFY
Orbit
SSO
Country
Flag of CNCN / PRC
Related business
Manufacturer
Unknown
Mission
Spacecraft
Bus & Motor
Unknown
Mass
Unknown
Launch date (UTC)
1999-05-10 (27 years ago)
Launch vehicle
Unknown
Launch site
Taiyaun Space Center, China (TSC)
Object type
Payload
Rocket body
Debris
Shape & HBR
Unknown shape, 0.1 m
Radar Cross Section
Small (<0.1 m²)

Expand to show TLE details & history
Last TLE update: 3 days ago

TLE from 3 days ago
0 FENGYUN 1C DEB
1 37406U 99025EFY 26234.39104010  .00000626  00000-0  37635-3 0  9991
2 37406  98.4220  93.8292 0146879 271.0626 267.6821 14.04981269667790
Epoch: 2026-08-22T09:23Z
TLE epoch observation values (Epoch: 2026-08-22T09:23:05.864Z)
Latitude
2.80542°
Longitude
162.76616°
Altitude
885.052 km
Speed
7.407 km/s
True Right ascension
18h 16m 58s
True Declination
2° 47' 20"
Sunlit
Object was in full shadow at epoch
Visualization orbit readout
Latitude
Unknown
Longitude
Unknown
Altitude
Unknown
Speed
Unknown
Apparent Right ascension
Unknown
Apparent Declination
Unknown
Sunlit
N/A
Visualization observer readout
Local Sidereal Time
14:54:56
Azimuth
Unknown
Elevation
Unknown
Doppler factor
Unknown
Orbital elements
Apogee altitude
980.276 km
Perigee altitude
767.246 km
Semi-major axis
7,251.898 km
Eccentricity
0.01469
Inclination
98.422°
RAAN
93.8292°
Arg. of periapsis
271.0626°
True anomaly
266.00186°
Mean anomaly
267.6821°
Eccentric anomaly
266.84182°
Mean motion
3.51452 °/min
Orbital period
102.43 mins
BSTAR
0.00037635
Loading maneuver chart data...
Computing Atmospheric mass density...

Documentation

Showing up to 5 results
|